When you browse on this site, cookies collect data to enhance your experience and personalize the content and advertising you see.
Visit our Privacy Policy to learn more. By continuing to use the site, you agree to this use of cookies and data.
  • Em Portugal
  • Lista de países
  • Para 7 dias
  • Temperatura da água
  • Mapa do tempo
  • Widgets de tempo
  • user-avatar
    Iniciar Sessão

    Previsão horária em Evlakh

    Hoje, 23 Agosto, Sexta-feira

    Tempo Temperatura Precipitação Vento Pressão Humidade
    00:00 +27°C° 0 mm 3 m/s 758 mmHg 42%
    01:00 +26°C° 0 mm 3 m/s 758 mmHg 44%
    02:00 +26°C° 0 mm 2 m/s 758 mmHg 46%
    03:00 +25°C° 0 mm 3 m/s 758 mmHg 48%
    04:00 +26°C° 0 mm 2 m/s 758 mmHg 49%
    05:00 +26°C° 0 mm 2 m/s 758 mmHg 49%
    06:00 +26°C° 0 mm 2 m/s 758 mmHg 49%
    07:00 +29°C° 0 mm 3 m/s 758 mmHg 43%
    08:00 +31°C° 0 mm 3 m/s 759 mmHg 36%
    09:00 +36°C° 0 mm 4 m/s 758 mmHg 28%
    10:00 +39°C° 0 mm 5 m/s 758 mmHg 25%
    11:00 +40°C° 0 mm 6 m/s 758 mmHg 22%
    12:00 +43°C° 0 mm 8 m/s 757 mmHg 20%
    13:00 +44°C° 0 mm 8 m/s 757 mmHg 18%
    14:00 +45°C° 0 mm 8 m/s 757 mmHg 17%
    15:00 +45°C° 0 mm 8 m/s 756 mmHg 16%
    16:00 +44°C° 0 mm 8 m/s 756 mmHg 16%
    17:00 +43°C° 0 mm 8 m/s 756 mmHg 16%
    18:00 +42°C° 0 mm 9 m/s 756 mmHg 16%
    19:00 +38°C° 0 mm 7 m/s 757 mmHg 20%
    20:00 +35°C° 0 mm 6 m/s 757 mmHg 25%
    21:00 +32°C° 0 mm 5 m/s 758 mmHg 29%
    22:00 +30°C° 0 mm 4 m/s 758 mmHg 33%
    23:00 +29°C° 0 mm 3 m/s 758 mmHg 38%

    Amanhã, 24 Agosto, Sábado

    Tempo Temperatura Precipitação Vento Pressão Humidade
    00:00 +27°C° 0 mm 2 m/s 758 mmHg 42%
    01:00 +27°C° 0 mm 2 m/s 758 mmHg 47%
    02:00 +26°C° 0 mm 2 m/s 758 mmHg 53%
    03:00 +25°C° 0 mm 2 m/s 758 mmHg 58%
    04:00 +26°C° 0 mm 1 m/s 758 mmHg 59%
    05:00 +26°C° 0 mm 1 m/s 758 mmHg 59%
    06:00 +26°C° 0 mm 1 m/s 758 mmHg 60%
    07:00 +29°C° 0 mm 1 m/s 758 mmHg 52%
    08:00 +31°C° 0 mm 2 m/s 758 mmHg 44%
    09:00 +35°C° 0 mm 2 m/s 758 mmHg 36%
    10:00 +37°C° 0 mm 3 m/s 758 mmHg 30%
    11:00 +41°C° 0 mm 4 m/s 757 mmHg 24%
    12:00 +43°C° 0 mm 5 m/s 757 mmHg 18%
    13:00 +45°C° 0 mm 6 m/s 757 mmHg 17%
    14:00 +45°C° 0 mm 6 m/s 756 mmHg 15%
    15:00 +46°C° 0 mm 7 m/s 756 mmHg 14%
    16:00 +45°C° 0 mm 7 m/s 756 mmHg 14%
    17:00 +44°C° 0 mm 8 m/s 756 mmHg 14%
    18:00 +43°C° 0 mm 8 m/s 756 mmHg 14%
    19:00 +39°C° 0 mm 7 m/s 757 mmHg 21%
    20:00 +35°C° 0 mm 6 m/s 758 mmHg 28%
    21:00 +32°C° 0 mm 5 m/s 759 mmHg 35%
    22:00 +30°C° 0 mm 4 m/s 759 mmHg 39%
    23:00 +29°C° 0 mm 2 m/s 759 mmHg 43%

    Depois de amanhã, 25 Agosto, Domingo

    Tempo Temperatura Precipitação Vento Pressão Humidade
    00:00 +28°C° 0 mm 1 m/s 759 mmHg 47%
    01:00 +27°C° 0 mm 1 m/s 758 mmHg 48%
    02:00 +26°C° 0 mm 1 m/s 758 mmHg 49%
    03:00 +26°C° 0 mm 1 m/s 758 mmHg 51%
    04:00 +26°C° 0 mm 1 m/s 758 mmHg 50%
    05:00 +27°C° 0 mm 1 m/s 758 mmHg 49%
    06:00 +27°C° 0 mm 1 m/s 758 mmHg 49%
    07:00 +30°C° 0 mm 2 m/s 758 mmHg 43%
    08:00 +32°C° 0 mm 2 m/s 758 mmHg 36%
    09:00 +36°C° 0 mm 2 m/s 758 mmHg 30%
    10:00 +37°C° 0 mm 2 m/s 757 mmHg 26%
    11:00 +39°C° 0 mm 2 m/s 757 mmHg 22%
    12:00 +40°C° 0 mm 2 m/s 757 mmHg 17%
    13:00 +42°C° 0 mm 3 m/s 756 mmHg 16%
    14:00 +43°C° 0 mm 3 m/s 756 mmHg 15%
    15:00 +44°C° 0 mm 4 m/s 756 mmHg 14%
    16:00 +43°C° 0 mm 5 m/s 756 mmHg 15%
    17:00 +41°C° 0 mm 6 m/s 756 mmHg 17%
    18:00 +40°C° 0 mm 6 m/s 756 mmHg 19%
    19:00 +36°C° 0 mm 6 m/s 757 mmHg 22%
    20:00 +33°C° 0 mm 5 m/s 758 mmHg 24%
    21:00 +30°C° 0 mm 4 m/s 758 mmHg 27%
    22:00 +29°C° 0 mm 4 m/s 758 mmHg 30%
    23:00 +27°C° 0 mm 3 m/s 758 mmHg 33%

    26 Agosto, Segunda-feira

    Tempo Temperatura Precipitação Vento Pressão Humidade
    00:00 +26°C° 0 mm 3 m/s 759 mmHg 36%
    01:00 +26°C° 0 mm 3 m/s 759 mmHg 38%
    02:00 +25°C° 0 mm 2 m/s 759 mmHg 40%
    03:00 +24°C° 0 mm 2 m/s 759 mmHg 42%
    04:00 +24°C° 0 mm 1 m/s 759 mmHg 44%
    05:00 +24°C° 0 mm 1 m/s 759 mmHg 46%
    06:00 +22°C° 0 mm 0 m/s 760 mmHg 48%
    07:00 +27°C° 0.1 mm 1 m/s 760 mmHg 41%
    08:00 +29°C° 0.1 mm 1 m/s 760 mmHg 34%
    09:00 +32°C° 0.1 mm 1 m/s 760 mmHg 27%
    10:00 +35°C° 0 mm 2 m/s 760 mmHg 24%
    11:00 +37°C° 0 mm 3 m/s 759 mmHg 20%
    12:00 +38°C° 0 mm 4 m/s 759 mmHg 16%
    13:00 +40°C° 0.1 mm 4 m/s 759 mmHg 16%
    14:00 +40°C° 0.1 mm 5 m/s 759 mmHg 16%
    15:00 +41°C° 0.1 mm 5 m/s 758 mmHg 16%
    16:00 +39°C° 0 mm 5 m/s 759 mmHg 19%
    17:00 +37°C° 0 mm 5 m/s 759 mmHg 22%
    18:00 +36°C° 0 mm 5 m/s 760 mmHg 24%
    19:00 +34°C° 0 mm 6 m/s 760 mmHg 31%
    20:00 +32°C° 0 mm 7 m/s 761 mmHg 38%
    21:00 +29°C° 0 mm 8 m/s 762 mmHg 46%
    22:00 +28°C° 0 mm 7 m/s 762 mmHg 47%
    23:00 +28°C° 0 mm 6 m/s 762 mmHg 49%

    27 Agosto, Terça-feira

    Tempo Temperatura Precipitação Vento Pressão Humidade
    00:00 +28°C° 0 mm 5 m/s 762 mmHg 51%
    01:00 +27°C° 0 mm 5 m/s 762 mmHg 55%
    02:00 +27°C° 0 mm 4 m/s 762 mmHg 58%
    03:00 +26°C° 0 mm 4 m/s 761 mmHg 61%
    04:00 +26°C° 0.1 mm 4 m/s 761 mmHg 64%
    05:00 +25°C° 0.1 mm 4 m/s 762 mmHg 66%
    06:00 +25°C° 0.1 mm 5 m/s 762 mmHg 69%
    07:00 +27°C° 0 mm 5 m/s 762 mmHg 61%
    08:00 +28°C° 0 mm 6 m/s 761 mmHg 54%
    09:00 +30°C° 0 mm 6 m/s 761 mmHg 46%
    10:00 +32°C° 0.1 mm 6 m/s 761 mmHg 41%
    11:00 +34°C° 0.1 mm 5 m/s 760 mmHg 37%
    12:00 +35°C° 0.1 mm 5 m/s 759 mmHg 32%
    13:00 +36°C° 0.2 mm 4 m/s 759 mmHg 31%
    14:00 +36°C° 0.2 mm 4 m/s 758 mmHg 30%
    15:00 +37°C° 0.2 mm 4 m/s 757 mmHg 28%
    16:00 +36°C° 0.1 mm 3 m/s 757 mmHg 31%
    17:00 +35°C° 0.1 mm 3 m/s 757 mmHg 33%
    18:00 +34°C° 0.1 mm 3 m/s 758 mmHg 35%
    19:00 +31°C° 0.1 mm 3 m/s 758 mmHg 42%
    20:00 +29°C° 0.1 mm 3 m/s 758 mmHg 49%
    21:00 +27°C° 0.1 mm 3 m/s 758 mmHg 55%
    22:00 +26°C° 0.1 mm 3 m/s 758 mmHg 60%
    23:00 +25°C° 0.1 mm 2 m/s 758 mmHg 64%

    28 Agosto, Quarta-feira

    Tempo Temperatura Precipitação Vento Pressão Humidade
    00:00 +24°C° 0.1 mm 2 m/s 758 mmHg 69%
    01:00 +24°C° 0.3 mm 2 m/s 758 mmHg 72%
    02:00 +24°C° 0.3 mm 1 m/s 757 mmHg 74%
    03:00 +23°C° 0.3 mm 1 m/s 757 mmHg 77%
    04:00 +21°C° 0.1 mm 0 m/s 757 mmHg 77%
    05:00 +21°C° 0.1 mm 0 m/s 757 mmHg 76%
    06:00 +22°C° 0.1 mm 0 m/s 758 mmHg 76%
    07:00 +23°C° 0 mm 0 m/s 758 mmHg 68%
    08:00 +27°C° 0 mm 1 m/s 757 mmHg 61%
    09:00 +29°C° 0 mm 1 m/s 757 mmHg 53%
    10:00 +30°C° 0 mm 1 m/s 757 mmHg 47%
    11:00 +32°C° 0 mm 1 m/s 757 mmHg 42%
    12:00 +34°C° 0 mm 1 m/s 757 mmHg 36%
    13:00 +35°C° 0 mm 1 m/s 756 mmHg 34%
    14:00 +36°C° 0 mm 2 m/s 756 mmHg 32%
    15:00 +37°C° 0 mm 2 m/s 756 mmHg 30%
    16:00 +36°C° 0 mm 3 m/s 756 mmHg 32%
    17:00 +35°C° 0 mm 3 m/s 756 mmHg 34%
    18:00 +35°C° 0 mm 4 m/s 757 mmHg 36%
    19:00 +33°C° 0 mm 5 m/s 757 mmHg 42%
    20:00 +30°C° 0 mm 6 m/s 758 mmHg 48%
    21:00 +27°C° 0 mm 7 m/s 759 mmHg 54%
    22:00 +27°C° 0 mm 6 m/s 759 mmHg 57%
    23:00 +26°C° 0 mm 5 m/s 759 mmHg 59%
    Mostrar mais